Location: Austin
(30.3000°N, 97.7500°W)
Time: 10:57:50
(UTC-05:00)

Atlas Centaur 2 - Pass Details

Date: 03 April 2024
Orbit: 458 x 1279 km, 30.4° (Epoch: 21 April)

Event Time Altitude Azimuth Distance (km) Brightness Sun altitude
Exits shadow 05:08:23 82° 86° (E) 775 1.9 -27.5°
Drops below altitude 10° 05:14:17 10° 87° (E) 2,597 5.6 -26.3°
Sets 05:17:14 0° 87° (E) 3,685 6.6 -25.7°
